Time,TemperatureF,DewpointF,PressureIn,WindDirection,WindDirectionDegrees,WindSpeedMPH,WindSpeedGustMPH,Humidity,HourlyPrecipIn,Conditions,Clouds,dailyrainin,SoftwareType,DateUTC
2013-12-25 00:02:00,8.0,5.0,-100.00,South,170,0.0,0.0,86,-99.99,,,-99.99,,2013-12-25 06:02:00,
2013-12-25 01:42:00,8.0,5.0,-100.00,WSW,255,0.0,0.0,86,-99.99,,,-99.99,,2013-12-25 07:42:00,
2013-12-25 01:52:00,8.0,5.0,-100.00,WSW,255,0.0,0.0,86,-99.99,,,-99.99,,2013-12-25 07:52:00,
2013-12-25 02:01:00,8.0,5.0,-100.00,WSW,255,0.0,0.0,86,-99.99,,,-99.99,,2013-12-25 08:01:00,
2013-12-25 02:42:00,8.0,5.0,-100.00,South,190,0.0,0.0,87,-99.99,,,-99.99,,2013-12-25 08:42:00,
2013-12-25 02:53:00,8.0,5.0,-100.00,South,190,0.0,0.0,87,-99.99,,,-99.99,,2013-12-25 08:53:00,
2013-12-25 03:02:00,8.0,5.0,-100.00,South,190,0.0,0.0,87,-99.99,,,-99.99,,2013-12-25 09:02:00,
2013-12-25 03:42:00,8.0,6.0,-100.00,SW,215,0.0,0.0,88,-99.99,,,-99.99,,2013-12-25 09:42:00,
2013-12-25 03:52:00,8.0,6.0,-100.00,SW,215,0.0,0.0,88,-99.99,,,-99.99,,2013-12-25 09:52:00,
2013-12-25 04:02:00,8.0,6.0,-100.00,SW,215,0.0,0.0,88,-99.99,,,-99.99,,2013-12-25 10:02:00,
2013-12-25 05:43:00,9.0,6.0,-100.00,SW,220,0.0,0.0,89,-99.99,,,-99.99,,2013-12-25 11:43:00,
2013-12-25 05:52:00,9.0,6.0,-100.00,SW,220,0.0,0.0,89,-99.99,,,-99.99,,2013-12-25 11:52:00,
2013-12-25 06:02:00,9.0,6.0,-100.00,SW,220,0.0,0.0,89,-99.99,,,-99.99,,2013-12-25 12:02:00,
2013-12-25 06:42:00,9.0,7.0,-100.00,South,170,0.0,0.0,89,-99.99,,,-99.99,,2013-12-25 12:42:00,
2013-12-25 06:52:00,9.0,7.0,-100.00,South,170,0.0,0.0,89,-99.99,,,-99.99,,2013-12-25 12:52:00,
2013-12-25 07:02:00,9.0,7.0,-100.00,South,170,0.0,0.0,89,-99.99,,,-99.99,,2013-12-25 13:02:00,
2013-12-25 07:42:00,10.0,8.0,-100.00,SSE,150,0.0,0.0,90,-99.99,,,-99.99,,2013-12-25 13:42:00,
2013-12-25 07:52:00,10.0,8.0,-100.00,SSE,150,0.0,0.0,90,-99.99,,,-99.99,,2013-12-25 13:52:00,
2013-12-25 08:02:00,10.0,8.0,-100.00,SSE,150,0.0,0.0,90,-99.99,,,-99.99,,2013-12-25 14:02:00,
2013-12-25 08:42:00,11.0,8.0,-100.00,NW,320,0.0,0.0,90,-99.99,,,-99.99,,2013-12-25 14:42:00,
2013-12-25 08:52:00,11.0,8.0,-100.00,NW,320,0.0,0.0,90,-99.99,,,-99.99,,2013-12-25 14:52:00,
2013-12-25 09:02:00,11.0,8.0,-100.00,NW,320,0.0,0.0,90,-99.99,,,-99.99,,2013-12-25 15:02:00,
2013-12-25 09:43:00,12.0,9.0,-100.00,SSW,200,0.0,0.0,90,-99.99,,,-99.99,,2013-12-25 15:43:00,
2013-12-25 09:54:00,12.0,9.0,-100.00,SSW,200,0.0,0.0,90,-99.99,,,-99.99,,2013-12-25 15:54:00,
2013-12-25 10:03:00,12.0,9.0,-100.00,SSW,200,0.0,0.0,90,-99.99,,,-99.99,,2013-12-25 16:03:00,
2013-12-25 10:10:00,13.0,11.0,-100.00,SE,130,0.0,0.0,88,-99.99,,,-99.99,,2013-12-25 16:10:00,
2013-12-25 10:42:00,13.0,11.0,-100.00,SE,130,0.0,0.0,88,-99.99,,,-99.99,,2013-12-25 16:42:00,
2013-12-25 10:53:00,13.0,11.0,-100.00,SE,130,0.0,0.0,88,-99.99,,,-99.99,,2013-12-25 16:53:00,
2013-12-25 11:02:00,13.0,11.0,-100.00,SE,130,0.0,0.0,88,-99.99,,,-99.99,,2013-12-25 17:02:00,
2013-12-25 11:42:00,15.0,12.0,-100.00,SE,145,0.0,0.0,86,-99.99,,,-99.99,,2013-12-25 17:42:00,
2013-12-25 11:52:00,15.0,12.0,-100.00,SE,145,0.0,0.0,86,-99.99,,,-99.99,,2013-12-25 17:52:00,
2013-12-25 12:02:00,15.0,12.0,-100.00,SE,145,0.0,0.0,86,-99.99,,,-99.99,,2013-12-25 18:02:00,
2013-12-25 12:42:00,16.0,13.0,-100.00,WSW,240,0.0,0.0,85,-99.99,,,-99.99,,2013-12-25 18:42:00,
2013-12-25 12:52:00,16.0,13.0,-100.00,WSW,240,0.0,0.0,85,-99.99,,,-99.99,,2013-12-25 18:52:00,
2013-12-25 13:01:00,16.0,13.0,-100.00,WSW,240,0.0,0.0,85,-99.99,,,-99.99,,2013-12-25 19:01:00,
2013-12-25 13:42:00,18.0,14.0,-100.00,WSW,240,0.0,0.0,86,-99.99,,,-99.99,,2013-12-25 19:42:00,
2013-12-25 13:52:00,18.0,14.0,-100.00,WSW,240,0.0,0.0,86,-99.99,,,-99.99,,2013-12-25 19:52:00,
2013-12-25 14:01:00,18.0,14.0,-100.00,WSW,240,0.0,0.0,86,-99.99,,,-99.99,,2013-12-25 20:01:00,
2013-12-25 14:42:00,19.0,16.0,-100.00,WSW,255,0.0,0.0,87,-99.99,,,-99.99,,2013-12-25 20:42:00,
2013-12-25 14:52:00,19.0,16.0,-100.00,WSW,255,0.0,0.0,87,-99.99,,,-99.99,,2013-12-25 20:52:00,
2013-12-25 15:02:00,19.0,16.0,-100.00,WSW,255,0.0,0.0,87,-99.99,,,-99.99,,2013-12-25 21:02:00,
2013-12-25 16:43:00,20.0,16.0,-100.00,WSW,240,0.0,0.0,84,-99.99,,,-99.99,,2013-12-25 22:43:00,
2013-12-25 16:53:00,20.0,16.0,-100.00,WSW,240,0.0,0.0,84,-99.99,,,-99.99,,2013-12-25 22:53:00,
2013-12-25 17:02:00,20.0,16.0,-100.00,WSW,240,0.0,0.0,84,-99.99,,,-99.99,,2013-12-25 23:02:00,
2013-12-25 17:43:00,20.0,18.0,-100.00,West,280,0.0,0.0,91,-99.99,,,-99.99,,2013-12-25 23:43:00,
2013-12-25 17:52:00,20.0,18.0,-100.00,West,280,0.0,0.0,91,-99.99,,,-99.99,,2013-12-25 23:52:00,
2013-12-25 18:01:00,20.0,18.0,-100.00,West,280,0.0,0.0,91,-99.99,,,-99.99,,2013-12-26 00:01:00,
2013-12-25 18:42:00,16.0,11.0,-100.00,West,280,0.0,0.0,82,-99.99,,,-99.99,,2013-12-26 00:42:00,
2013-12-25 18:52:00,16.0,11.0,-100.00,West,280,0.0,0.0,82,-99.99,,,-99.99,,2013-12-26 00:52:00,
2013-12-25 19:01:00,16.0,11.0,-100.00,West,280,0.0,0.0,82,-99.99,,,-99.99,,2013-12-26 01:01:00,
2013-12-25 19:42:00,14.0,10.0,-100.00,WNW,285,0.0,0.0,84,-99.99,,,-99.99,,2013-12-26 01:42:00,
2013-12-25 19:52:00,14.0,10.0,-100.00,WNW,285,0.0,0.0,84,-99.99,,,-99.99,,2013-12-26 01:52:00,
2013-12-25 20:02:00,14.0,10.0,-100.00,WNW,285,0.0,0.0,84,-99.99,,,-99.99,,2013-12-26 02:02:00,
2013-12-25 20:52:00,14.0,8.0,-100.00,WNW,290,0.0,0.0,78,-99.99,,,-99.99,,2013-12-26 02:52:00,
2013-12-25 21:02:00,14.0,8.0,-100.00,WNW,290,0.0,0.0,78,-99.99,,,-99.99,,2013-12-26 03:02:00,
2013-12-25 21:43:00,11.0,6.0,-100.00,SW,230,0.0,0.0,77,-99.99,,,-99.99,,2013-12-26 03:43:00,
2013-12-25 21:53:00,11.0,6.0,-100.00,SW,230,0.0,0.0,77,-99.99,,,-99.99,,2013-12-26 03:53:00,
2013-12-25 22:03:00,11.0,6.0,-100.00,SW,230,0.0,0.0,77,-99.99,,,-99.99,,2013-12-26 04:03:00,
2013-12-25 22:10:00,10.0,5.0,-100.00,West,265,0.0,0.0,82,-99.99,,,-99.99,,2013-12-26 04:10:00,
2013-12-25 22:43:00,10.0,5.0,-100.00,West,265,0.0,0.0,82,-99.99,,,-99.99,,2013-12-26 04:43:00,
2013-12-25 22:52:00,10.0,5.0,-100.00,West,265,0.0,0.0,82,-99.99,,,-99.99,,2013-12-26 04:52:00,
2013-12-25 23:02:00,10.0,5.0,-100.00,West,265,0.0,0.0,82,-99.99,,,-99.99,,2013-12-26 05:02:00,
2013-12-25 23:43:00,11.0,7.0,-100.00,WSW,240,0.0,0.0,86,-99.99,,,-99.99,,2013-12-26 05:43:00,
2013-12-25 23:53:00,11.0,7.0,-100.00,WSW,240,0.0,0.0,86,-99.99,,,-99.99,,2013-12-26 05:53:00,